Location: Unspecified
(0.0000°N, 0.0000°E)
Time: 07:50:22
(UTC+00:00)

deb r/b Ablestar - Pass Details

Date: 22 December 2025
Orbit: 674 x 763 km, 66.8° (Epoch: 18 January)

Event Time Altitude Azimuth Distance (km) Brightness Sun altitude
Rises 20:38:57 0° 214° (SW) 3,169 ? -36.2°
Reaches altitude 10° 20:41:26 10° 221° (SW) 2,257 ? -36.7°
Enters shadow 20:43:54 26° 239° (WSW) 1,462 ? -37.2°
